Year,Month,Day,Hour,Minute,Value (Times are PST for temperature in C)
2007,05,24,00,00,9.70
2007,05,24,00,01,9.70
2007,05,24,00,02,9.70
2007,05,24,00,03,9.70
2007,05,24,00,04,9.70
2007,05,24,00,05,9.70
2007,05,24,00,06,9.70
2007,05,24,00,07,9.70
2007,05,24,00,08,9.70
2007,05,24,00,09,9.70
2007,05,24,00,10,9.70
2007,05,24,00,11,9.70
2007,05,24,00,12,9.70
2007,05,24,00,13,9.70
2007,05,24,00,14,9.70
2007,05,24,00,15,9.70
2007,05,24,00,16,9.60
2007,05,24,00,17,9.60
2007,05,24,00,18,9.60
2007,05,24,00,19,9.60
2007,05,24,00,20,9.60
2007,05,24,00,21,9.60
2007,05,24,00,22,9.50
2007,05,24,00,23,9.50
2007,05,24,00,24,9.50
2007,05,24,00,25,9.50
2007,05,24,00,26,9.50
2007,05,24,00,27,9.50
2007,05,24,00,28,9.40
2007,05,24,00,29,9.50
2007,05,24,00,30,9.50
2007,05,24,00,31,9.50
2007,05,24,00,32,9.50
2007,05,24,00,33,9.50
2007,05,24,00,34,9.50
2007,05,24,00,35,9.50
2007,05,24,00,36,9.50
2007,05,24,00,37,9.50
2007,05,24,00,38,9.50
2007,05,24,00,39,9.50
2007,05,24,00,40,9.50
2007,05,24,00,41,9.50
2007,05,24,00,42,9.50
2007,05,24,00,43,9.50
2007,05,24,00,44,9.50
2007,05,24,00,45,9.50
2007,05,24,00,46,9.60
2007,05,24,00,47,9.60
2007,05,24,00,48,9.60
2007,05,24,00,49,9.60
2007,05,24,00,50,9.60
2007,05,24,00,51,9.70
2007,05,24,00,52,9.70
2007,05,24,00,53,9.70
2007,05,24,00,54,9.70
2007,05,24,00,55,9.70
2007,05,24,00,56,9.70
2007,05,24,00,57,9.70
2007,05,24,00,58,9.70
2007,05,24,00,59,9.70
2007,05,24,01,00,9.70
2007,05,24,01,01,9.70
2007,05,24,01,02,9.60
2007,05,24,01,03,9.60
2007,05,24,01,04,9.60
2007,05,24,01,05,9.60
2007,05,24,01,06,9.60
2007,05,24,01,07,9.60
2007,05,24,01,08,9.60
2007,05,24,01,09,9.60
2007,05,24,01,10,9.60
2007,05,24,01,11,9.50
2007,05,24,01,12,9.50
2007,05,24,01,13,9.50
2007,05,24,01,14,9.50
2007,05,24,01,15,9.40
2007,05,24,01,16,9.40
2007,05,24,01,17,9.40
2007,05,24,01,18,9.30
2007,05,24,01,19,9.30
2007,05,24,01,20,9.30
2007,05,24,01,21,9.30
2007,05,24,01,22,9.30
2007,05,24,01,23,9.30
2007,05,24,01,24,9.30
2007,05,24,01,25,9.20
2007,05,24,01,26,9.20
2007,05,24,01,27,9.20
2007,05,24,01,28,9.20
2007,05,24,01,29,9.20
2007,05,24,01,30,9.10
2007,05,24,01,31,9.10
2007,05,24,01,32,9.10
2007,05,24,01,33,9.00
2007,05,24,01,34,9.00
2007,05,24,01,35,8.90
2007,05,24,01,36,8.90
2007,05,24,01,37,8.90
2007,05,24,01,38,8.90
2007,05,24,01,39,8.80
2007,05,24,01,40,8.80
2007,05,24,01,41,8.80
2007,05,24,01,42,8.70
2007,05,24,01,43,8.70
2007,05,24,01,44,8.70
2007,05,24,01,45,8.60
2007,05,24,01,46,8.60
2007,05,24,01,47,8.60
2007,05,24,01,48,8.50
2007,05,24,01,49,8.40
2007,05,24,01,50,8.40
2007,05,24,01,51,8.30
2007,05,24,01,52,8.30
2007,05,24,01,53,8.30
2007,05,24,01,54,8.20
2007,05,24,01,55,8.20
2007,05,24,01,56,8.10
2007,05,24,01,57,8.10
2007,05,24,01,58,8.10
2007,05,24,01,59,8.00
2007,05,24,02,00,8.00
2007,05,24,02,01,8.00
2007,05,24,02,02,7.90
2007,05,24,02,03,7.90
2007,05,24,02,04,7.90
2007,05,24,02,05,7.90
2007,05,24,02,06,7.80
2007,05,24,02,07,7.80
2007,05,24,02,08,7.80
2007,05,24,02,09,7.80
2007,05,24,02,10,7.80
2007,05,24,02,11,7.80
2007,05,24,02,12,7.80
2007,05,24,02,13,7.80
2007,05,24,02,14,7.70
2007,05,24,02,15,7.70
2007,05,24,02,16,7.70
2007,05,24,02,17,7.70
2007,05,24,02,18,7.70
2007,05,24,02,19,7.70
2007,05,24,02,20,7.60
2007,05,24,02,21,7.60
2007,05,24,02,22,7.60
2007,05,24,02,23,7.60
2007,05,24,02,24,7.60
2007,05,24,02,25,7.50
2007,05,24,02,26,7.50
2007,05,24,02,27,7.50
2007,05,24,02,28,7.50
2007,05,24,02,29,7.40
2007,05,24,02,30,7.40
2007,05,24,02,31,7.40
2007,05,24,02,32,7.40
2007,05,24,02,33,7.40
2007,05,24,02,34,7.30
2007,05,24,02,35,7.30
2007,05,24,02,36,7.30
2007,05,24,02,37,7.30
2007,05,24,02,38,7.30
2007,05,24,02,39,7.30
2007,05,24,02,40,7.30
2007,05,24,02,41,7.30
2007,05,24,02,42,7.20
2007,05,24,02,43,7.20
2007,05,24,02,44,7.20
2007,05,24,02,45,7.20
2007,05,24,02,46,7.20
2007,05,24,02,47,7.20
2007,05,24,02,48,7.20
2007,05,24,02,49,7.10
2007,05,24,02,50,7.10
2007,05,24,02,51,7.10
2007,05,24,02,52,7.10
2007,05,24,02,53,7.10
2007,05,24,02,54,7.10
2007,05,24,02,55,7.00
2007,05,24,02,56,7.00
2007,05,24,02,57,7.00
2007,05,24,02,58,7.00
2007,05,24,02,59,6.90
2007,05,24,03,00,6.90
2007,05,24,03,01,6.90
2007,05,24,03,02,6.90
2007,05,24,03,03,6.90
2007,05,24,03,04,6.80
2007,05,24,03,05,6.80
2007,05,24,03,06,6.80
2007,05,24,03,07,6.80
2007,05,24,03,08,6.70
2007,05,24,03,09,6.70
2007,05,24,03,10,6.70
2007,05,24,03,11,6.70
2007,05,24,03,12,6.70
2007,05,24,03,13,6.70
2007,05,24,03,14,6.60
2007,05,24,03,15,6.60
2007,05,24,03,16,6.60
2007,05,24,03,17,6.60
2007,05,24,03,18,6.60
2007,05,24,03,19,6.60
2007,05,24,03,20,6.60
2007,05,24,03,21,6.60
2007,05,24,03,22,6.60
2007,05,24,03,23,6.50
2007,05,24,03,24,6.50
2007,05,24,03,25,6.50
2007,05,24,03,26,6.50
2007,05,24,03,27,6.50
2007,05,24,03,28,6.50
2007,05,24,03,29,6.50
2007,05,24,03,30,6.40
2007,05,24,03,31,6.40
2007,05,24,03,32,6.40
2007,05,24,03,33,6.40
2007,05,24,03,34,6.40
2007,05,24,03,35,6.40
2007,05,24,03,36,6.40
2007,05,24,03,37,6.40
2007,05,24,03,38,6.40
2007,05,24,03,39,6.30
2007,05,24,03,40,6.30
2007,05,24,03,41,6.30
2007,05,24,03,42,6.30
2007,05,24,03,43,6.30
2007,05,24,03,44,6.30
2007,05,24,03,45,6.30
2007,05,24,03,46,6.20
2007,05,24,03,47,6.20
2007,05,24,03,48,6.20
2007,05,24,03,49,6.20
2007,05,24,03,50,6.20
2007,05,24,03,51,6.20
2007,05,24,03,52,6.20
2007,05,24,03,53,6.20
2007,05,24,03,54,6.10
2007,05,24,03,55,6.10
2007,05,24,03,56,6.10
2007,05,24,03,57,6.10
2007,05,24,03,58,6.10
2007,05,24,03,59,6.10
2007,05,24,04,00,6.10
2007,05,24,04,01,6.10
2007,05,24,04,02,6.10
2007,05,24,04,03,6.10
2007,05,24,04,04,6.10
2007,05,24,04,05,6.10
2007,05,24,04,06,6.10
2007,05,24,04,07,6.10
2007,05,24,04,08,6.10
2007,05,24,04,09,6.00
2007,05,24,04,10,6.00
2007,05,24,04,11,6.00
2007,05,24,04,12,6.00
2007,05,24,04,13,5.90
2007,05,24,04,14,5.90
2007,05,24,04,15,5.90
2007,05,24,04,16,5.90
2007,05,24,04,17,5.90
2007,05,24,04,18,5.90
2007,05,24,04,19,5.90
2007,05,24,04,20,5.80
2007,05,24,04,21,5.80
2007,05,24,04,22,5.80
2007,05,24,04,23,5.80
2007,05,24,04,24,5.80
2007,05,24,04,25,5.80
2007,05,24,04,26,5.80
2007,05,24,04,27,5.80
2007,05,24,04,28,5.80
2007,05,24,04,29,5.80
2007,05,24,04,30,5.80
2007,05,24,04,31,5.70
2007,05,24,04,32,5.70
2007,05,24,04,33,5.70
2007,05,24,04,34,5.70
2007,05,24,04,35,5.70
2007,05,24,04,36,5.70
2007,05,24,04,37,5.70
2007,05,24,04,38,5.70
2007,05,24,04,39,5.70
2007,05,24,04,40,5.70
2007,05,24,04,41,5.70
2007,05,24,04,42,5.60
2007,05,24,04,43,5.60
2007,05,24,04,44,5.60
2007,05,24,04,45,5.60
2007,05,24,04,46,5.60
2007,05,24,04,47,5.60
2007,05,24,04,48,5.60
2007,05,24,04,49,5.60
2007,05,24,04,50,5.60
2007,05,24,04,51,5.60
2007,05,24,04,52,5.60
2007,05,24,04,53,5.60
2007,05,24,04,54,5.60
2007,05,24,04,55,5.60
2007,05,24,04,56,5.50
2007,05,24,04,57,5.50
2007,05,24,04,58,5.50
2007,05,24,04,59,5.50
2007,05,24,05,00,5.50
2007,05,24,05,01,5.50
2007,05,24,05,02,5.50
2007,05,24,05,03,5.50
2007,05,24,05,04,5.50
2007,05,24,05,05,5.50
2007,05,24,05,06,5.50
2007,05,24,05,07,5.50
2007,05,24,05,08,5.50
2007,05,24,05,09,5.50
2007,05,24,05,10,5.50
2007,05,24,05,11,5.50
2007,05,24,05,12,5.40
2007,05,24,05,13,5.50
2007,05,24,05,14,5.50
2007,05,24,05,15,5.50
2007,05,24,05,16,5.50
2007,05,24,05,17,5.50
2007,05,24,05,18,5.50
2007,05,24,05,19,5.50
2007,05,24,05,20,5.50
2007,05,24,05,21,5.50
2007,05,24,05,22,5.50
2007,05,24,05,23,5.50
2007,05,24,05,24,5.50
2007,05,24,05,25,5.50
2007,05,24,05,26,5.50
2007,05,24,05,27,5.50
2007,05,24,05,28,5.50
2007,05,24,05,29,5.50
2007,05,24,05,30,5.50
2007,05,24,05,31,5.50
2007,05,24,05,32,5.50
2007,05,24,05,33,5.50
2007,05,24,05,34,5.50
2007,05,24,05,35,5.50
2007,05,24,05,36,5.50
2007,05,24,05,37,5.50
2007,05,24,05,38,5.50
2007,05,24,05,39,5.50
2007,05,24,05,40,5.50
2007,05,24,05,41,5.50
2007,05,24,05,42,5.50
2007,05,24,05,43,5.50
2007,05,24,05,44,5.50
2007,05,24,05,45,5.50
2007,05,24,05,46,5.50
2007,05,24,05,47,5.50
2007,05,24,05,48,5.50
2007,05,24,05,49,5.50
2007,05,24,05,50,5.50
2007,05,24,05,51,5.60
2007,05,24,05,52,5.60
2007,05,24,05,53,5.60
2007,05,24,05,54,5.60
2007,05,24,05,55,5.60
2007,05,24,05,56,5.60
2007,05,24,05,57,5.60
2007,05,24,05,58,5.60
2007,05,24,05,59,5.60
2007,05,24,06,00,5.60
2007,05,24,06,01,5.60
2007,05,24,06,02,5.60
2007,05,24,06,03,5.60
2007,05,24,06,04,5.60
2007,05,24,06,05,5.60
2007,05,24,06,06,5.70
2007,05,24,06,07,5.70
2007,05,24,06,08,5.70
2007,05,24,06,09,5.70
2007,05,24,06,10,5.70
2007,05,24,06,11,5.70
2007,05,24,06,12,5.70
2007,05,24,06,13,5.70
2007,05,24,06,14,5.70
2007,05,24,06,15,5.70
2007,05,24,06,16,5.70
2007,05,24,06,17,5.70
2007,05,24,06,18,5.70
2007,05,24,06,19,5.80
2007,05,24,06,20,5.80
2007,05,24,06,21,5.80
2007,05,24,06,22,5.80
2007,05,24,06,23,5.80
2007,05,24,06,24,5.80
2007,05,24,06,25,5.80
2007,05,24,06,26,5.80
2007,05,24,06,27,5.80
2007,05,24,06,28,5.80
2007,05,24,06,29,5.90
2007,05,24,06,30,5.90
2007,05,24,06,31,5.90
2007,05,24,06,32,5.90
2007,05,24,06,33,5.90
2007,05,24,06,34,5.90
2007,05,24,06,35,5.90
2007,05,24,06,36,5.90
2007,05,24,06,37,5.90
2007,05,24,06,38,5.90
2007,05,24,06,39,5.90
2007,05,24,06,40,5.90
2007,05,24,06,41,5.90
2007,05,24,06,42,5.90
2007,05,24,06,43,5.90
2007,05,24,06,44,5.90
2007,05,24,06,45,5.90
2007,05,24,06,46,5.90
2007,05,24,06,47,5.90
2007,05,24,06,48,6.00
2007,05,24,06,49,6.00
2007,05,24,06,50,6.00
2007,05,24,06,51,6.00
2007,05,24,06,52,6.00
2007,05,24,06,53,6.10
2007,05,24,06,54,6.10
2007,05,24,06,55,6.20
2007,05,24,06,56,6.20
2007,05,24,06,57,6.20
2007,05,24,06,58,6.20
2007,05,24,06,59,6.20
2007,05,24,07,00,6.20
2007,05,24,07,01,6.30
2007,05,24,07,02,6.30
2007,05,24,07,03,6.30
2007,05,24,07,04,6.30
2007,05,24,07,05,6.40
2007,05,24,07,06,6.50
2007,05,24,07,07,6.50
2007,05,24,07,08,6.60
2007,05,24,07,09,6.70
2007,05,24,07,10,6.70
2007,05,24,07,11,6.80
2007,05,24,07,12,6.90
2007,05,24,07,13,6.90
2007,05,24,07,14,7.00
2007,05,24,07,15,7.00
2007,05,24,07,16,7.10
2007,05,24,07,17,7.20
2007,05,24,07,18,7.30
2007,05,24,07,19,7.30
2007,05,24,07,20,7.40
2007,05,24,07,21,7.40
2007,05,24,07,22,7.50
2007,05,24,07,23,7.50
2007,05,24,07,24,7.60
2007,05,24,07,25,7.60
2007,05,24,07,26,7.70
2007,05,24,07,27,7.70
2007,05,24,07,28,7.80
2007,05,24,07,29,7.80
2007,05,24,07,30,7.90
2007,05,24,07,31,7.90
2007,05,24,07,32,8.00
2007,05,24,07,33,8.00
2007,05,24,07,34,8.10
2007,05,24,07,35,8.10
2007,05,24,07,36,8.20
2007,05,24,07,37,8.20
2007,05,24,07,38,8.20
2007,05,24,07,39,8.30
2007,05,24,07,40,8.30
2007,05,24,07,41,8.40
2007,05,24,07,42,8.40
2007,05,24,07,43,8.50
2007,05,24,07,44,8.60
2007,05,24,07,45,8.60
2007,05,24,07,46,8.70
2007,05,24,07,47,8.80
2007,05,24,07,48,8.90
2007,05,24,07,49,9.00
2007,05,24,07,50,9.10
2007,05,24,07,51,9.20
2007,05,24,07,52,9.30
2007,05,24,07,53,9.40
2007,05,24,07,54,9.50
2007,05,24,07,55,9.50
2007,05,24,07,56,9.60
2007,05,24,07,57,9.60
2007,05,24,07,58,9.70
2007,05,24,07,59,9.80
2007,05,24,08,00,9.80
2007,05,24,08,01,9.90
2007,05,24,08,02,10.00
2007,05,24,08,03,10.10
2007,05,24,08,04,10.20
2007,05,24,08,05,10.30
2007,05,24,08,06,10.40
2007,05,24,08,07,10.40
2007,05,24,08,08,10.50
2007,05,24,08,09,10.60
2007,05,24,08,10,10.60
2007,05,24,08,11,10.60
2007,05,24,08,12,10.70
2007,05,24,08,13,10.70
2007,05,24,08,14,10.80
2007,05,24,08,15,10.80
2007,05,24,08,16,10.80
2007,05,24,08,17,10.90
2007,05,24,08,18,10.90
2007,05,24,08,19,10.90
2007,05,24,08,20,10.90
2007,05,24,08,21,11.00
2007,05,24,08,22,11.00
2007,05,24,08,23,11.10
2007,05,24,08,24,11.10
2007,05,24,08,25,11.20
2007,05,24,08,26,11.20
2007,05,24,08,27,11.30
2007,05,24,08,28,11.30
2007,05,24,08,29,11.40
2007,05,24,08,30,11.50
2007,05,24,08,31,11.60
2007,05,24,08,32,11.50
2007,05,24,08,33,11.50
2007,05,24,08,34,11.50
2007,05,24,08,35,11.40
2007,05,24,08,36,11.50
2007,05,24,08,37,11.50
2007,05,24,08,38,11.50
2007,05,24,08,39,11.60
2007,05,24,08,40,11.60
2007,05,24,08,41,11.70
2007,05,24,08,42,11.80
2007,05,24,08,43,11.80
2007,05,24,08,44,11.90
2007,05,24,08,45,12.00
2007,05,24,08,46,12.10
2007,05,24,08,47,12.20
2007,05,24,08,48,12.30
2007,05,24,08,49,12.30
2007,05,24,08,50,12.50
2007,05,24,08,51,12.50
2007,05,24,08,52,12.60
2007,05,24,08,53,12.70
2007,05,24,08,54,12.70
2007,05,24,08,55,12.80
2007,05,24,08,56,12.80
2007,05,24,08,57,12.70
2007,05,24,08,58,12.80
2007,05,24,08,59,12.70
2007,05,24,09,00,12.70
2007,05,24,09,01,12.70
2007,05,24,09,02,12.70
2007,05,24,09,03,12.70
2007,05,24,09,04,12.80
2007,05,24,09,05,12.80
2007,05,24,09,06,12.90
2007,05,24,09,07,13.00
2007,05,24,09,08,13.10
2007,05,24,09,09,13.20
2007,05,24,09,10,13.30
2007,05,24,09,11,13.40
2007,05,24,09,12,13.50
2007,05,24,09,13,13.60
2007,05,24,09,14,13.70
2007,05,24,09,15,13.60
2007,05,24,09,16,13.60
2007,05,24,09,17,13.60
2007,05,24,09,18,13.60
2007,05,24,09,19,13.70
2007,05,24,09,20,13.80
2007,05,24,09,21,13.90
2007,05,24,09,22,14.00
2007,05,24,09,23,14.10
2007,05,24,09,24,14.20
2007,05,24,09,25,14.30
2007,05,24,09,26,14.40
2007,05,24,09,27,14.50
2007,05,24,09,28,14.60
2007,05,24,09,29,14.70
2007,05,24,09,30,14.80
2007,05,24,09,31,14.90
2007,05,24,09,32,15.00
2007,05,24,09,33,15.00
2007,05,24,09,34,15.00
2007,05,24,09,35,15.00
2007,05,24,09,36,15.10
2007,05,24,09,37,15.10
2007,05,24,09,38,15.00
2007,05,24,09,39,15.00
2007,05,24,09,40,15.00
2007,05,24,09,41,15.00
2007,05,24,09,42,15.00
2007,05,24,09,43,15.00
2007,05,24,09,44,15.00
2007,05,24,09,45,15.10
2007,05,24,09,46,15.10
2007,05,24,09,47,15.20
2007,05,24,09,48,15.30
2007,05,24,09,49,15.30
2007,05,24,09,50,15.40
2007,05,24,09,51,15.50
2007,05,24,09,52,15.60
2007,05,24,09,53,15.70
2007,05,24,09,54,15.70
2007,05,24,09,55,15.80
2007,05,24,09,56,15.80
2007,05,24,09,57,15.90
2007,05,24,09,58,16.00
2007,05,24,09,59,16.10
2007,05,24,10,00,16.20
2007,05,24,10,01,16.30
2007,05,24,10,02,16.40
2007,05,24,10,03,16.50
2007,05,24,10,04,16.50
2007,05,24,10,05,16.60
2007,05,24,10,06,16.60
2007,05,24,10,07,16.50
2007,05,24,10,08,16.50
2007,05,24,10,09,16.50
2007,05,24,10,10,16.50
2007,05,24,10,11,16.60
2007,05,24,10,12,16.50
2007,05,24,10,13,16.40
2007,05,24,10,14,16.40
2007,05,24,10,15,16.40
2007,05,24,10,16,16.40
2007,05,24,10,17,16.30
2007,05,24,10,18,16.30
2007,05,24,10,19,16.40
2007,05,24,10,20,16.40
2007,05,24,10,21,16.50
2007,05,24,10,22,16.60
2007,05,24,10,23,16.60
2007,05,24,10,24,16.70
2007,05,24,10,25,16.80
2007,05,24,10,26,16.80
2007,05,24,10,27,16.90
2007,05,24,10,28,17.00
2007,05,24,10,29,17.20
2007,05,24,10,30,17.30
2007,05,24,10,31,17.30
2007,05,24,10,32,17.40
2007,05,24,10,33,17.50
2007,05,24,10,34,17.50
2007,05,24,10,35,17.50
2007,05,24,10,36,17.60
2007,05,24,10,37,17.60
2007,05,24,10,38,17.60
2007,05,24,10,39,17.70
2007,05,24,10,40,17.70
2007,05,24,10,41,17.80
2007,05,24,10,42,17.80
2007,05,24,10,43,18.00
2007,05,24,10,44,18.10
2007,05,24,10,45,18.20
2007,05,24,10,46,18.20
2007,05,24,10,47,18.30
2007,05,24,10,48,18.20
2007,05,24,10,49,18.20
2007,05,24,10,50,18.00
2007,05,24,10,51,18.00
2007,05,24,10,52,18.00
2007,05,24,10,53,18.10
2007,05,24,10,54,18.10
2007,05,24,10,55,18.10
2007,05,24,10,56,18.20
2007,05,24,10,57,18.30
2007,05,24,10,58,18.30
2007,05,24,10,59,18.50
2007,05,24,11,00,18.60
2007,05,24,11,01,18.70
2007,05,24,11,02,18.80
2007,05,24,11,03,18.90
2007,05,24,11,04,19.00
2007,05,24,11,05,19.10
2007,05,24,11,06,19.30
2007,05,24,11,07,19.40
2007,05,24,11,08,19.50
2007,05,24,11,09,19.60
2007,05,24,11,10,19.70
2007,05,24,11,11,19.70
2007,05,24,11,12,19.60
2007,05,24,11,13,19.50
2007,05,24,11,14,19.40
2007,05,24,11,15,19.40
2007,05,24,11,16,19.40
2007,05,24,11,17,19.40
2007,05,24,11,18,19.40
2007,05,24,11,19,19.40
2007,05,24,11,20,19.50
2007,05,24,11,21,19.60
2007,05,24,11,22,19.70
2007,05,24,11,23,19.70
2007,05,24,11,24,19.70
2007,05,24,11,25,19.70
2007,05,24,11,26,19.70
2007,05,24,11,27,19.70
2007,05,24,11,28,19.70
2007,05,24,11,29,19.70
2007,05,24,11,30,19.70
2007,05,24,11,31,19.70
2007,05,24,11,32,19.80
2007,05,24,11,33,19.90
2007,05,24,11,34,20.00
2007,05,24,11,35,20.00
2007,05,24,11,36,20.10
2007,05,24,11,37,20.20
2007,05,24,11,38,20.30
2007,05,24,11,39,20.40
2007,05,24,11,40,20.50
2007,05,24,11,41,20.50
2007,05,24,11,42,20.40
2007,05,24,11,43,20.40
2007,05,24,11,44,20.40
2007,05,24,11,45,20.40
2007,05,24,11,46,20.40
2007,05,24,11,47,20.50
2007,05,24,11,48,20.50
2007,05,24,11,49,20.50
2007,05,24,11,50,20.40
2007,05,24,11,51,20.40
2007,05,24,11,52,20.50
2007,05,24,11,53,20.60
2007,05,24,11,54,20.60
2007,05,24,11,55,20.70
2007,05,24,11,56,20.80
2007,05,24,11,57,20.80
2007,05,24,11,58,20.90
2007,05,24,11,59,21.00
2007,05,24,12,00,21.00
2007,05,24,12,01,20.90
2007,05,24,12,02,20.90
2007,05,24,12,03,20.90
2007,05,24,12,04,20.90
2007,05,24,12,05,20.90
2007,05,24,12,06,20.90
2007,05,24,12,07,20.80
2007,05,24,12,08,20.80
2007,05,24,12,09,20.80
2007,05,24,12,10,20.90
2007,05,24,12,11,20.90
2007,05,24,12,12,20.80
2007,05,24,12,13,20.80
2007,05,24,12,14,20.80
2007,05,24,12,15,20.90
2007,05,24,12,16,21.10
2007,05,24,12,17,21.20
2007,05,24,12,18,21.30
2007,05,24,12,19,21.40
2007,05,24,12,20,21.40
2007,05,24,12,21,21.40
2007,05,24,12,22,21.40
2007,05,24,12,23,21.30
2007,05,24,12,24,21.30
2007,05,24,12,25,21.30
2007,05,24,12,26,21.40
2007,05,24,12,27,21.50
2007,05,24,12,28,21.60
2007,05,24,12,29,21.70
2007,05,24,12,30,21.80
2007,05,24,12,31,21.80
2007,05,24,12,32,21.80
2007,05,24,12,33,21.70
2007,05,24,12,34,21.60
2007,05,24,12,35,21.50
2007,05,24,12,36,21.50
2007,05,24,12,37,21.50
2007,05,24,12,38,21.50
2007,05,24,12,39,21.50
2007,05,24,12,40,21.50
2007,05,24,12,41,21.60
2007,05,24,12,42,21.60
2007,05,24,12,43,21.60
2007,05,24,12,44,21.70
2007,05,24,12,45,21.80
2007,05,24,12,46,21.90
2007,05,24,12,47,22.00
2007,05,24,12,48,22.10
2007,05,24,12,49,22.20
2007,05,24,12,50,22.40
2007,05,24,12,51,22.50
2007,05,24,12,52,22.50
2007,05,24,12,53,22.50
2007,05,24,12,54,22.50
2007,05,24,12,55,22.50
2007,05,24,12,56,22.50
2007,05,24,12,57,22.40
2007,05,24,12,58,22.50
2007,05,24,12,59,22.60
2007,05,24,13,00,22.60
2007,05,24,13,01,22.60
2007,05,24,13,02,22.70
2007,05,24,13,03,22.80
2007,05,24,13,04,22.90
2007,05,24,13,05,22.90
2007,05,24,13,06,22.80
2007,05,24,13,07,22.80
2007,05,24,13,08,22.80
2007,05,24,13,09,22.80
2007,05,24,13,10,22.90
2007,05,24,13,11,23.00
2007,05,24,13,12,23.00
2007,05,24,13,13,22.90
2007,05,24,13,14,22.80
2007,05,24,13,15,22.80
2007,05,24,13,16,22.70
2007,05,24,13,17,22.70
2007,05,24,13,18,22.60
2007,05,24,13,19,22.70
2007,05,24,13,20,22.60
2007,05,24,13,21,22.60
2007,05,24,13,22,22.70
2007,05,24,13,23,22.80
2007,05,24,13,24,22.80
2007,05,24,13,25,22.80
2007,05,24,13,26,22.80
2007,05,24,13,27,22.80
2007,05,24,13,28,22.70
2007,05,24,13,29,22.60
2007,05,24,13,30,22.70
2007,05,24,13,31,22.70
2007,05,24,13,32,22.60
2007,05,24,13,33,22.60
2007,05,24,13,34,22.60
2007,05,24,13,35,22.70
2007,05,24,13,36,22.80
2007,05,24,13,37,22.80
2007,05,24,13,38,22.80
2007,05,24,13,39,22.90
2007,05,24,13,40,22.90
2007,05,24,13,41,22.90
2007,05,24,13,42,22.80
2007,05,24,13,43,22.60
2007,05,24,13,44,22.50
2007,05,24,13,45,22.50
2007,05,24,13,46,22.50
2007,05,24,13,47,22.60
2007,05,24,13,48,22.70
2007,05,24,13,49,22.90
2007,05,24,13,50,23.00
2007,05,24,13,51,23.10
2007,05,24,13,52,23.30
2007,05,24,13,53,23.30
2007,05,24,13,54,23.30
2007,05,24,13,55,23.30
2007,05,24,13,56,23.20
2007,05,24,13,57,23.20
2007,05,24,13,58,23.20
2007,05,24,13,59,23.30
2007,05,24,14,00,23.30
2007,05,24,14,01,23.40
2007,05,24,14,02,23.50
2007,05,24,14,03,23.60
2007,05,24,14,04,23.70
2007,05,24,14,05,23.70
2007,05,24,14,06,23.80
2007,05,24,14,07,23.80
2007,05,24,14,08,23.80
2007,05,24,14,09,23.70
2007,05,24,14,10,23.70
2007,05,24,14,11,23.60
2007,05,24,14,12,23.60
2007,05,24,14,13,23.60
2007,05,24,14,14,23.80
2007,05,24,14,15,23.90
2007,05,24,14,16,23.90
2007,05,24,14,17,23.90
2007,05,24,14,18,23.80
2007,05,24,14,19,23.70
2007,05,24,14,20,23.60
2007,05,24,14,21,23.60
2007,05,24,14,22,23.60
2007,05,24,14,23,23.70
2007,05,24,14,24,23.70
2007,05,24,14,25,23.70
2007,05,24,14,26,23.70
2007,05,24,14,27,23.70
2007,05,24,14,28,23.80
2007,05,24,14,29,23.90
2007,05,24,14,30,24.10
2007,05,24,14,31,24.20
2007,05,24,14,32,24.30
2007,05,24,14,33,24.20
2007,05,24,14,34,24.30
2007,05,24,14,35,24.30
2007,05,24,14,36,24.30
2007,05,24,14,37,24.40
2007,05,24,14,38,24.40
2007,05,24,14,39,24.20
2007,05,24,14,40,24.00
2007,05,24,14,41,23.80
2007,05,24,14,42,23.70
2007,05,24,14,43,23.60
2007,05,24,14,44,23.60
2007,05,24,14,45,23.50
2007,05,24,14,46,23.40
2007,05,24,14,47,23.30
2007,05,24,14,48,23.20
2007,05,24,14,49,23.00
2007,05,24,14,50,22.80
2007,05,24,14,51,22.70
2007,05,24,14,52,22.70
2007,05,24,14,53,22.70
2007,05,24,14,54,22.70
2007,05,24,14,55,22.60
2007,05,24,14,56,22.60
2007,05,24,14,57,22.60
2007,05,24,14,58,22.60
2007,05,24,14,59,22.60
2007,05,24,15,00,22.70
2007,05,24,15,01,22.70
2007,05,24,15,02,22.70
2007,05,24,15,03,22.70
2007,05,24,15,04,22.70
2007,05,24,15,05,22.70
2007,05,24,15,06,22.70
2007,05,24,15,07,22.80
2007,05,24,15,08,22.80
2007,05,24,15,09,22.90
2007,05,24,15,10,23.00
2007,05,24,15,11,23.00
2007,05,24,15,12,23.10
2007,05,24,15,13,23.00
2007,05,24,15,14,22.90
2007,05,24,15,15,22.90
2007,05,24,15,16,22.90
2007,05,24,15,17,22.80
2007,05,24,15,18,22.80
2007,05,24,15,19,22.80
2007,05,24,15,20,22.80
2007,05,24,15,21,22.80
2007,05,24,15,22,22.80
2007,05,24,15,23,22.80
2007,05,24,15,24,22.80
2007,05,24,15,25,22.80
2007,05,24,15,26,22.60
2007,05,24,15,27,22.50
2007,05,24,15,28,22.50
2007,05,24,15,29,22.60
2007,05,24,15,30,22.60
2007,05,24,15,31,22.60
2007,05,24,15,32,22.60
2007,05,24,15,33,22.60
2007,05,24,15,34,22.60
2007,05,24,15,35,22.60
2007,05,24,15,36,22.60
2007,05,24,15,37,22.60
2007,05,24,15,38,22.50
2007,05,24,15,39,22.50
2007,05,24,15,40,22.50
2007,05,24,15,41,22.60
2007,05,24,15,42,22.60
2007,05,24,15,43,22.60
2007,05,24,15,44,22.50
2007,05,24,15,45,22.40
2007,05,24,15,46,22.40
2007,05,24,15,47,22.50
2007,05,24,15,48,22.50
2007,05,24,15,49,22.60
2007,05,24,15,50,22.60
2007,05,24,15,51,22.50
2007,05,24,15,52,22.50
2007,05,24,15,53,22.50
2007,05,24,15,54,22.60
2007,05,24,15,55,22.60
2007,05,24,15,56,22.60
2007,05,24,15,57,22.60
2007,05,24,15,58,22.60
2007,05,24,15,59,22.60
2007,05,24,16,00,22.70
2007,05,24,16,01,22.70
2007,05,24,16,02,22.60
2007,05,24,16,03,22.60
2007,05,24,16,04,22.60
2007,05,24,16,05,22.60
2007,05,24,16,06,22.60
2007,05,24,16,07,22.50
2007,05,24,16,08,22.50
2007,05,24,16,09,22.50
2007,05,24,16,10,22.40
2007,05,24,16,11,22.40
2007,05,24,16,12,22.30
2007,05,24,16,13,22.30
2007,05,24,16,14,22.30
2007,05,24,16,15,22.40
2007,05,24,16,16,22.50
2007,05,24,16,17,22.50
2007,05,24,16,18,22.50
2007,05,24,16,19,22.50
2007,05,24,16,20,22.50
2007,05,24,16,21,22.50
2007,05,24,16,22,22.50
2007,05,24,16,23,22.60
2007,05,24,16,24,22.70
2007,05,24,16,25,22.70
2007,05,24,16,26,22.80
2007,05,24,16,27,22.80
2007,05,24,16,28,22.80
2007,05,24,16,29,22.70
2007,05,24,16,30,22.70
2007,05,24,16,31,22.70
2007,05,24,16,32,22.70
2007,05,24,16,33,22.70
2007,05,24,16,34,22.60
2007,05,24,16,35,22.60
2007,05,24,16,36,22.60
2007,05,24,16,37,22.60
2007,05,24,16,38,22.60
2007,05,24,16,39,22.60
2007,05,24,16,40,22.70
2007,05,24,16,41,22.70
2007,05,24,16,42,22.70
2007,05,24,16,43,22.80
2007,05,24,16,44,22.80
2007,05,24,16,45,22.70
2007,05,24,16,46,22.70
2007,05,24,16,47,22.60
2007,05,24,16,48,22.60
2007,05,24,16,49,22.60
2007,05,24,16,50,22.60
2007,05,24,16,51,22.60
2007,05,24,16,52,22.60
2007,05,24,16,53,22.60
2007,05,24,16,54,22.60
2007,05,24,16,55,22.60
2007,05,24,16,56,22.60
2007,05,24,16,57,22.60
2007,05,24,16,58,22.60
2007,05,24,16,59,22.70
2007,05,24,17,00,22.70
2007,05,24,17,01,22.70
2007,05,24,17,02,22.70
2007,05,24,17,03,22.70
2007,05,24,17,04,22.70
2007,05,24,17,05,22.70
2007,05,24,17,06,22.70
2007,05,24,17,07,22.70
2007,05,24,17,08,22.70
2007,05,24,17,09,22.70
2007,05,24,17,10,22.70
2007,05,24,17,11,22.70
2007,05,24,17,12,22.60
2007,05,24,17,13,22.60
2007,05,24,17,14,22.60
2007,05,24,17,15,22.60
2007,05,24,17,16,22.60
2007,05,24,17,17,22.60
2007,05,24,17,18,22.60
2007,05,24,17,19,22.50
2007,05,24,17,20,22.50
2007,05,24,17,21,22.50
2007,05,24,17,22,22.40
2007,05,24,17,23,22.50
2007,05,24,17,24,22.50
2007,05,24,17,25,22.50
2007,05,24,17,26,22.50
2007,05,24,17,27,22.50
2007,05,24,17,28,22.50
2007,05,24,17,29,22.50
2007,05,24,17,30,22.50
2007,05,24,17,31,22.40
2007,05,24,17,32,22.40
2007,05,24,17,33,22.40
2007,05,24,17,34,22.40
2007,05,24,17,35,22.50
2007,05,24,17,36,22.50
2007,05,24,17,37,22.50
2007,05,24,17,38,22.50
2007,05,24,17,39,22.50
2007,05,24,17,40,22.40